Weather History for KPGA - August, 2013

Change the Weather History Date:

Wednesday, August 28, 2013

  Actual Average Record
Temperature  
Mean Temperature 77 °F -  
Max Temperature 90 °F 90 °F 99 °F (2012)
Min Temperature 64 °F 64 °F 58 °F (1993)
Cooling Degree Days 12    
Growing Degree Days 27 (Base 50)    
Moisture  
Dew Point 58 °F    
Average Humidity 54    
Maximum Humidity 81    
Minimum Humidity 22    
Precipitation  
Precipitation 0.00 in - - ()
Sea Level Pressure  
Sea Level Pressure 29.94 in    
Wind  
Wind Speed 1 mph (North)    
Max Wind Speed 6 mph    
Max Gust Speed -    
Visibility 10 miles    
Events      
Averages and records for this station are not official NWS values.
T = Trace of Precipitation, MM = Missing Value Source: NWS Daily Summary

Daily Weather History Graph

Daily Weather History Graph

Search for Another Location

Airport or City:

Trip Planner

Search our weather history database for the weather conditions in past years. The results will help you decide how hot, cold, wet, or windy it might be!

Date:

Astronomy

Aug. 28, 2013 Rise Set
Actual Time 5:53 AM MST 6:59 PM MST
Civil Twilight 5:26 AM MST 7:26 PM MST
Nautical Twilight 4:55 AM MST 7:57 PM MST
Astronomical Twilight 4:22 AM MST 8:30 PM MST
Moon 11:53 PM MST (8/28) 1:36 PM MST (8/28)
Length of Visible Light 13h 59m
Length of Day
13h 05m
Last Quarter, 46% of the Moon is Illuminated
Aug 28
Last Quarter
Sep 5
New
Sep 12
First Quarter
Sep 19
Full
Sep 26
Last Quarter

Hourly Weather History & Observations

Time (MST) Temp. Heat Index Dew Point Humidity Pressure Visibility Wind Dir Wind Speed Gust Speed Precip Events Conditions
12:53 AM 66.9 °F - 57.9 °F 73% 29.96 in 10.0 mi Calm Calm - N/A   Clear
1:53 AM 68.0 °F - 60.1 °F 76% 29.94 in 10.0 mi Calm Calm - N/A   Clear
2:53 AM 66.0 °F - 60.1 °F 81% 29.94 in 10.0 mi Calm Calm - N/A   Clear
3:53 AM 66.0 °F - 60.1 °F 81% 29.93 in 10.0 mi Calm Calm - N/A   Clear
4:53 AM 66.0 °F - 60.1 °F 81% 29.94 in 10.0 mi Calm Calm - N/A   Clear
5:53 AM 64.9 °F - 59.0 °F 81% 29.96 in 10.0 mi SE 5.8 mph - N/A   Clear
6:53 AM 68.0 °F - 59.0 °F 73% 29.98 in 10.0 mi Calm Calm - N/A   Clear
7:53 AM 72.0 °F - 59.0 °F 64% 29.99 in 10.0 mi Calm Calm - N/A   Partly Cloudy
8:53 AM 73.9 °F - 60.1 °F 62% 30.00 in 10.0 mi ENE 3.5 mph - N/A   Clear
9:53 AM 75.9 °F - 60.1 °F 58% 30.01 in 10.0 mi North 4.6 mph - N/A   Clear
10:53 AM 78.1 °F - 59.0 °F 52% 30.00 in 10.0 mi NNE 4.6 mph - N/A   Clear
11:53 AM 80.1 °F 80.6 °F 57.9 °F 47% 29.98 in 10.0 mi NE 3.5 mph - N/A   Clear
12:53 PM 82.9 °F 82.6 °F 57.9 °F 42% 29.96 in 10.0 mi ENE 3.5 mph - N/A   Clear
1:53 PM 86.0 °F 84.9 °F 57.0 °F 37% 29.92 in 10.0 mi North 3.5 mph - N/A   Clear
2:53 PM 88.0 °F 85.7 °F 53.1 °F 30% 29.91 in 10.0 mi North 4.6 mph - N/A   Clear
3:53 PM 89.1 °F 86.7 °F 53.1 °F 29% 29.88 in 10.0 mi NNW 5.8 mph - N/A   Clear
4:53 PM 89.1 °F 87.1 °F 55.0 °F 31% 29.88 in 10.0 mi Calm Calm - N/A   Clear
5:53 PM 88.0 °F 86.1 °F 55.0 °F 32% 29.87 in 10.0 mi Calm Calm - N/A   Clear
6:53 PM 82.9 °F 82.4 °F 57.0 °F 41% 29.88 in 10.0 mi Calm Calm - N/A   Clear
7:53 PM 80.1 °F 80.7 °F 59.0 °F 48% 29.90 in 10.0 mi Calm Calm - N/A   Clear
8:53 PM 79.0 °F - 59.0 °F 50% 29.92 in 10.0 mi WSW 3.5 mph - N/A   Clear
9:53 PM 75.9 °F - 60.1 °F 58% 29.93 in 10.0 mi Calm Calm - N/A   Clear
10:53 PM 77.0 °F - 59.0 °F 54% 29.94 in 10.0 mi Calm Calm - N/A   Clear
11:53 PM 78.1 °F - 57.0 °F 48% 29.93 in 10.0 mi West 5.8 mph - N/A   Clear